sat.trackr.live / text

‹ back to catalog

STARLINK-36836

NORAD 68065 · 2026-041AB

PAYLOAD ACTIVE UNKNOWN

§ Identity

Operator
Country
US
Launch date
2026-03-02
Launch site
AFETR
Launch vehicle
Mass (kg)
RCS (m²)

Purposes: comms

External: N2YO · Heavens-Above · Gunter

§ Orbital elements

Epoch: 2026-05-25T03:16:16.168800Z

Period
94.10 min
Inclination
53.1607°
Eccentricity
0.0001306
Mean motion
15.30207363 rev/d
Perigee alt
474.3 km
Apogee alt
476.1 km
Semi-major
6,853.3 km
B*
4.4367e-4
RAAN
54.7038°
Arg perigee
83.9801°
Mean anomaly
276.1349°
Rev number
1,309

§ Raw data

STARLINK-368361 68065U 26041AB  26145.13629825  .00012807  00000+0  44367-3 0  99962 68065  53.1607  54.7038 0001306  83.9801 276.1349 15.30207363 13090

JSON: /api/v1/satellites/68065 · /tle

For live sub-satellite position, see the globe view (requires WebGL).

§ Visibility from observer

Set your observer location to see the next 7 days of passes ≥ 10°. The values pass through the URL so the page stays shareable.

No JS? Fill the form by hand. The geolocation button needs JavaScript.